Location: Albany
(35.0000°S, 118.0000°E)
Time: 17:25:24
(UTC-05:00)

Daily predictions for brighter satellites

Satellite Brightness Start Highest point End
(mag) Time Altitude Azimuth Time Altitude Azimuth Time Altitude Azimuth
H-2A R/B 4.2 12:08:29 29° SW 12:08:29 29° SW 12:10:53 10° SSW
Cosmos 1844 Rocket 3.7 12:07:21 35° WSW 12:07:21 35° WSW 12:12:32 10° S
Cosmos 1151 Rocket 4.3 12:09:25 38° S 12:09:25 38° S 12:12:15 10° S
Cosmos 468 Rocket 4.2 12:14:20 10° SSW 12:19:30 68° SE 12:19:30 68° SE
Cosmos 371 Rocket 4.4 12:15:54 10° SSW 12:19:03 38° SW 12:19:03 38° SW
Cosmos 1455 4.3 12:24:09 24° SSW 12:24:09 24° SSW 12:26:00 10° S
Helios 1A Rocket 4.1 12:25:24 43° S 12:25:24 43° S 12:28:19 10° S
IRS-1D 3.8 12:24:49 62° E 12:25:08 64° ESE 12:30:30 10° S
Cosmos 44 Rocket 3.9 12:23:18 10° SSW 12:28:08 52° ESE 12:28:24 51° ESE
Meteor 2-10 Rocket 4.4 12:29:14 38° ENE 12:29:34 39° E 12:34:18 10° SSE
Cosmos 1707 Rocket 4.4 12:34:51 45° ESE 12:34:51 45° ESE 12:38:40 10° SSE
Cosmos 1486 Rocket 4.1 12:35:00 68° E 12:35:00 68° E 12:40:06 10° SSE
COSMOS 2406 4.1 12:32:17 10° SW 12:36:19 37° WSW 12:36:19 37° WSW
ERS-1 4.4 12:39:55 83° SE 12:39:55 83° SE 12:44:58 10° SSW
Cosmos 2082 Rocket 3.7 12:34:54 10° S 12:40:03 33° ESE 12:45:05 10° NE
Cosmos 1153 Rocket 4.3 12:42:07 72° N 12:42:49 88° W 12:49:04 10° S
Cosmos 1833 Rocket 3.8 12:44:51 10° S 12:50:12 41° ESE 12:54:31 15° NE
Resurs 1-4 Rocket 2.2 12:52:18 61° W 12:52:18 61° W 12:57:17 10° SSW
Cosmos 2173 Rocket 4.3 12:50:15 45° NNE 12:51:59 61° E 12:58:09 10° SSE
CZ-4B R/B 3.3 12:50:32 10° S 12:52:22 29° S 12:52:22 29° S
Cosmos 1862 4.2 12:50:48 10° S 12:54:33 44° ESE 12:54:33 44° ESE
ADEOS 3.7 12:54:02 57° NE 12:55:01 72° ESE 13:00:18 10° S
Cosmos 841 Rocket 3.8 12:52:06 10° S 12:57:18 64° ESE 12:58:46 45° NE
Cosmos 2084 Rocket 3.7 12:59:13 66° S 12:59:13 66° S 13:03:19 10° SSE
CZ-4C R/B 3.4 12:54:08 10° SSW 12:59:21 37° SE 13:04:02 10° ENE
ARIANE 5 R/B 2.4 13:02:10 69° WNW 13:02:12 69° WNW 13:07:23 10° SSW
Spot 4 Rocket 4.2 13:05:29 56° W 13:05:29 56° W 13:10:24 10° SSW
Cosmos 1340 3.3 13:06:51 52° S 13:06:51 52° S 13:09:51 10° S
Cosmos 44 4.0 13:01:39 10° SW 13:04:57 39° WSW 13:04:57 39° WSW
CZ-2D R/B 2.6 13:07:25 43° W 13:07:25 43° W 13:11:56 10° SSW
Cosmos 1689 Rocket 4.2 13:04:52 10° S 13:06:33 27° S 13:06:33 27° S
Milstar 3 3.5 13:04:52 34° NW 13:09:31 56° N 13:16:45 10° E
Cosmos 1354 Rocket 4.1 13:09:12 59° NNE 13:10:06 73° ENE 13:15:29 10° SSE
Cosmos 304 Rocket 4.0 13:05:44 10° SSW 13:10:01 55° WSW 13:10:01 55° WSW
Cosmos 2369 Rocket 4.3 13:12:31 11° NE 13:15:57 19° E 13:19:49 10° ESE
Landsat 5 4.2 13:12:24 10° S 13:15:29 40° SW 13:15:29 40° SW
SEDSat Delta rocket 4.1 13:18:37 32° NE 13:18:37 32° NE 13:21:34 10° ENE
Cosmos 1814 Rocket 4.1 13:12:34 10° SSW 13:17:28 52° W 13:17:28 52° W
Cosmos 1933 3.3 13:19:27 87° ENE 13:19:28 87° E 13:23:40 10° S
USA 32 3.9 13:17:08 10° S 13:22:26 76° W 13:23:30 56° NNW
Orbus 7S? 3.2 13:19:48 10° SW 13:22:46 81° SE 13:28:00 10° NE
ADEOS II 3.1 13:18:58 13° NE 13:23:22 46° ESE 13:28:25 10° S
SL-27 R/B 4.3 13:20:07 10° SSW 13:21:39 22° SW 13:21:39 22° SW
Atlas Centaur 2 3.6 13:23:42 20° NNE 13:23:42 20° NNE 13:27:57 10° ENE
Cosmos 1825 4.3 13:24:44 10° SW 13:26:07 17° SW 13:26:07 17° SW
Cosmos 1862 Rocket 3.9 13:27:03 46° NNE 13:28:03 60° E 13:32:24 10° SSE
SeaSat 1 2.8 13:24:52 14° NE 13:29:08 65° ESE 13:34:04 10° SSW
Cosmos 2242 Rocket 3.5 13:31:02 59° N 13:31:54 90° SW 13:36:32 10° S
GP-B 3.0 13:30:10 10° S 13:34:42 82° W 13:35:35 57° NNW
Cosmos 1437 4.3 13:39:32 27° SW 13:39:32 27° SW 13:41:37 10° SSW
Cosmos 2278 Rocket 4.0 13:38:39 15° W 13:40:34 17° SW 13:44:14 10° SSW
Cosmos 1763 Rocket 4.3 13:39:04 10° SW 13:43:40 32° W 13:43:40 32° W
NOSS 3-1 (C) 4.4 13:43:01 25° N 13:48:21 62° ENE 13:56:08 10° SE
Cosmos 836 Rocket 4.4 13:46:35 10° SSW 13:51:53 82° WNW 13:55:49 18° NNE
CZ-2D R/B 4.1 13:54:18 35° W 13:54:18 35° W 13:58:14 10° SSW
Aureole 3 2.8 13:51:43 10° SSW 13:54:53 57° WSW 13:54:53 57° WSW
ASTRO E2 2.9 13:59:06 46° NNW 13:59:38 50° N 14:03:33 10° ENE
Cosmos 1606 3.5 14:00:42 20° NNE 14:03:10 49° E 14:07:01 10° SSE
Cosmos 968 Rocket 3.4 14:01:58 30° NNW 14:04:36 85° WSW 14:09:48 10° SSE
UNKNOWN OBJECT B 4.4 14:10:13 19° W 14:10:13 19° W 14:12:30 10° SW
Cosmos 1943 Rocket 3.4 14:06:15 10° N 14:11:17 36° ENE 14:16:19 10° SE
SL-08 R/B 3.3 14:06:56 10° S 14:11:36 68° WSW 14:14:05 27° NNW
Delta 2 Rocket 3.5 14:12:33 35° N 14:13:11 39° NNE 14:16:31 10° E
Cosmos 1725 Rocket 4.2 14:12:01 24° NNW 14:15:49 55° W 14:22:05 10° S
Cosmos 1782 3.0 14:15:10 19° N 14:17:58 75° E 14:22:05 10° S
COSMOS 2487 2.4 14:14:30 10° SSW 14:18:05 67° WNW 14:20:31 19° N
SL-16 R/B 2.6 14:12:22 10° SSE 14:18:41 90° SW 14:24:03 15° NNW
Delta 142 4.2 14:19:09 27° NW 14:20:44 37° N 14:25:23 10° ENE
USA 229 DEB 4.4 14:16:25 21° WNW 14:21:16 48° SW 14:28:18 10° SSE
USA 229 4.3 14:16:31 21° WNW 14:21:22 48° SW 14:28:25 10° SSE
Abrixas rocket 4.1 14:20:06 16° NNE 14:21:23 20° NE 14:23:51 10° E
Cosmos 2221 Rocket 4.2 14:19:22 10° N 14:23:49 57° E 14:28:19 10° SSE
Cosmos 2082 Rocket 3.0 14:19:05 10° SW 14:23:59 30° WNW 14:26:48 20° NW
Timation 2 Rocket 4.1 14:18:30 10° SSW 14:24:55 89° ESE 14:31:33 10° NNE
NOSS 3-1 (A) 4.3 14:18:38 17° NNW 14:25:39 77° ENE 14:33:32 10° SE
UNK 3.9 14:22:36 10° S 14:27:16 61° WSW 14:30:28 19° NNW
EPKM 3.9 14:26:42 15° N 14:27:55 17° NNE 14:31:41 10° ENE
Cosmos 783 Rocket 4.4 14:23:20 10° SSW 14:28:36 76° WNW 14:33:50 10° N
Meteor 1-31 Rocket 4.5 14:26:17 10° NE 14:29:52 35° ESE 14:33:28 10° S
Cosmos 1703 Rocket 3.6 14:28:10 18° NNW 14:31:25 69° W 14:35:55 10° S
GEOS 3 Rocket 3.5 14:28:07 10° NNE 14:33:18 68° WNW 14:38:25 10° SW
Cosmos 1833 Rocket 3.8 14:29:27 10° SW 14:33:47 23° W 14:36:06 18° NW
Cosmos 1733 Rocket 4.4 14:34:23 10° SW 14:37:49 22° W 14:39:30 18° WNW
Cosmos 2346 Rocket 4.4 14:32:08 10° SSW 14:38:15 69° W 14:44:15 10° N
Meteor 1-10 Rocket 4.2 14:37:49 10° N 14:43:29 85° W 14:49:08 10° S
PSLV R/B 3.9 14:41:55 10° N 14:45:54 42° W 14:49:58 10° SSW
Okean O Rocket 1.5 14:41:35 10° N 14:45:57 70° W 14:50:21 10° SSW
CZ-4C R/B 3.0 14:43:14 10° WSW 14:47:28 24° WNW 14:51:24 10° NNW
CZ-3 R/B 3.7 14:06:32 10° WNW 14:47:31 67° N 14:56:19 10° E
Hubble Space Telescope 2.4 14:47:50 13° NNW 14:50:15 20° NNE 14:53:22 10° ENE
Cosmos 1777 Rocket 4.0 14:49:07 10° NNW 14:54:17 72° WSW 14:59:36 10° SSE
CZ-4B R/B 4.0 14:50:52 10° NNE 14:54:42 75° ESE 14:58:45 10° S
Cosmos 405 2.9 14:52:14 10° S 14:55:50 78° W 14:59:23 10° N
Cosmos 1908 Rocket 4.3 14:53:47 10° SSW 14:57:51 34° W 15:01:51 10° NNW
Cosmos 2369 Rocket 2.6 14:54:20 12° NW 14:59:28 51° WSW 15:05:05 10° S
SEDSat Delta rocket 4.3 14:58:51 10° WNW 15:02:45 26° NNW 15:07:06 10° NE
ADEOS II 3.5 14:59:55 11° NW 15:03:14 19° W 15:06:53 10° SW
Lacrosse 5 2.9 14:58:40 10° SSW 15:03:44 52° SE 15:08:43 10° ENE
Cosmos 1538 Rocket 4.0 14:59:04 10° SSW 15:04:19 83° WNW 15:09:29 10° NNE
Cosmos 1818 4.4 14:59:41 10° N 15:04:53 50° ENE 15:10:07 10° SE
Okean-O 4.2 15:01:51 10° NE 15:06:01 40° ESE 15:10:14 10° S
SeaSat 1 4.1 15:04:36 10° NW 15:06:57 13° WNW 15:09:19 10° WSW
Cosmos 2263 4.4 15:01:49 10° NNW 15:07:30 62° WSW 15:13:12 10° SSE
IDEFIX/ARIANE 42P 4.3 15:03:29 10° NE 15:08:20 38° ESE 15:13:13 10° S
Atlas Centaur 2 2.9 15:06:23 10° WNW 15:11:55 48° NNE 15:18:52 10° E
Cosmos 1464 Rocket 4.1 15:08:29 10° NNW 15:14:48 72° W 15:21:08 10° S
Cosmos 405 Rocket 4.0 15:12:14 10° NW 15:15:45 27° WSW 15:19:19 10° SSW
EXPRESS MD2 3.8 15:10:32 10° NW 15:17:13 73° SW 15:20:36 10° SE
Meteor 1-11 Rocket 4.0 15:13:36 10° S 15:19:34 88° E 15:25:33 10° N
